This is the latest recevied weather packets stored in our database for station/object 5B4APJ-13. If no packets are shown the sender has not sent any weather packets the latest 10 day(s).
| Time | Temp. | Humidity | Pressure | Rain* | Wind** | Luminosity | Snow |
|---|---|---|---|---|---|---|---|
| 1788147797 | 78° F | 46% | 756 mmHg | 0 in | 2 mph, 252° | 25 W/m² | - |
| 1788147497 | 77° F | 47% | 756 mmHg | 0 in | 1 mph, 273° | 20 W/m² | - |
| 1788147197 | 77° F | 48% | 756 mmHg | 0 in | 1 mph, 260° | 15 W/m² | - |
| 1788146897 | 76° F | 48% | 756 mmHg | 0 in | 2 mph, 274° | 11 W/m² | - |
| 1788146597 | 76° F | 48% | 756 mmHg | 0 in | 2 mph, 252° | 7 W/m² | - |
| 1788146297 | 76° F | 48% | 756.1 mmHg | 0 in | 3 mph, 264° | 4 W/m² | - |
| 1788145997 | 76° F | 48% | 755.8 mmHg | 0 in | 2 mph, 264° | 2 W/m² | - |
| 1788145696 | 76° F | 47% | 755.8 mmHg | 0 in | 3 mph, 247° | 1 W/m² | - |
| 1788145397 | 76° F | 47% | 755.8 mmHg | 0 in | 3 mph, 267° | 0 W/m² | - |
| 1788145097 | 76° F | 47% | 755.8 mmHg | 0 in | 3 mph, 247° | 0 W/m² | - |
| 1788144797 | 76° F | 47% | 755.8 mmHg | 0 in | 3 mph, 248° | 0 W/m² | - |
| 1788144497 | 77° F | 46% | 755.8 mmHg | 0 in | 3 mph, 253° | 0 W/m² | - |
| 1788144197 | 77° F | 46% | 756.1 mmHg | 0 in | 4 mph, 245° | 0 W/m² | - |
| 1788143897 | 77° F | 45% | 755.9 mmHg | 0 in | 4 mph, 234° | 0 W/m² | - |
| 1788143597 | 76° F | 46% | 755.8 mmHg | 0 in | 3 mph, 242° | 0 W/m² | - |
| 1788143297 | 76° F | 46% | 755.7 mmHg | 0 in | 4 mph, 248° | 0 W/m² | - |
| 1788142997 | 76° F | 47% | 755.8 mmHg | 0 in | 4 mph, 239° | 0 W/m² | - |
| 1788142697 | 76° F | 47% | 756 mmHg | 0 in | 4 mph, 240° | 0 W/m² | - |
| 1788142397 | 76° F | 47% | 755.8 mmHg | 0 in | 4 mph, 247° | 0 W/m² | - |
| 1788142096 | 76° F | 47% | 755.9 mmHg | 0 in | 4 mph, 244° | 0 W/m² | - |
| 1788141797 | 75° F | 48% | 755.8 mmHg | 0 in | 4 mph, 244° | 0 W/m² | - |
| 1788141497 | 76° F | 47% | 755.8 mmHg | 0 in | 4 mph, 238° | 0 W/m² | - |
| 1788141197 | 76° F | 47% | 755.7 mmHg | 0 in | 4 mph, 242° | 0 W/m² | - |
| 1788140897 | 76° F | 47% | 755.6 mmHg | 0 in | 4 mph, 239° | 0 W/m² | - |
| 1788140597 | 76° F | 47% | 755.8 mmHg | 0 in | 4 mph, 239° | 0 W/m² | - |
* Rain latest hour (hover to see other rain measurements)
** Current wind speed in m/s (hover to see current wind gust speed)